Theta_e
353 352 352 352 352 353 353 353 352 352 352 353 353 353 353 353 353 353 354 354 352 351 352 352 351 351 352 349 347 344 343 345 345 344 344 343 342 341 339 340 343 347 348 347 347 347 347 347 348 347 347 346 345 345 346 345 344 344 343 343 343 344 343 343 341 342 343 343 343 343 343 342 341 340 339 340 339 338 338 338 338 338 339 339 339
352 352 352 353 354 353 353 353 352 353 352 352 353 354 354 353 354 353 354 354 352 353 353 352 350 350 351 347 345 344 342 344 345 345 344 342 340 340 339 339 341 343 346 347 347 348 349 347 347 347 347 347 346 347 347 345 344 344 344 344 344 344 345 345 343 342 343 344 344 344 344 343 343 341 341 341 340 340 340 341 341 341 340 341 340
352 353 353 355 355 354 354 353 354 354 353 352 353 354 354 354 355 353 354 355 354 353 352 351 350 349 347 345 344 342 338 340 345 346 346 344 340 341 341 340 340 340 341 343 344 346 348 348 348 347 346 347 348 348 348 346 345 344 343 345 345 345 345 345 345 344 344 344 344 344 345 344 343 343 343 343 342 342 341 341 342 342 342 342 341
354 355 354 354 355 355 355 353 354 354 353 355 355 355 354 354 355 354 354 355 354 353 351 350 348 346 343 341 340 339 336 339 344 345 346 346 343 343 344 342 341 340 340 340 341 342 345 348 348 348 347 347 347 347 348 348 346 345 345 345 346 346 345 345 345 345 344 345 344 345 345 344 343 343 343 343 343 343 343 342 341 341 341 341 342
357 356 355 355 355 356 355 355 355 354 355 356 355 355 355 354 355 356 355 354 354 352 350 348 346 344 342 339 337 338 337 338 343 344 346 347 346 346 346 345 342 340 341 340 340 340 342 346 348 348 348 347 347 347 348 348 348 347 346 347 346 346 345 345 345 345 345 345 345 345 345 344 343 343 343 342 343 343 343 343 342 342 341 341 342
359 357 356 355 355 355 355 356 356 355 357 356 355 355 355 354 355 355 355 354 353 351 348 347 344 341 341 339 336 338 339 339 342 344 346 347 348 348 347 348 345 343 342 341 340 339 340 343 346 347 348 347 347 347 347 347 347 347 347 346 346 346 346 345 345 345 345 345 344 344 344 343 343 343 342 342 342 342 342 342 342 342 342 341 341
358 358 357 355 353 354 356 356 356 356 357 357 356 356 355 355 355 355 355 355 351 349 347 345 344 340 339 338 336 339 342 341 342 344 345 346 348 349 349 349 349 349 347 344 341 338 337 340 344 345 346 347 347 347 347 346 347 347 347 346 346 346 347 346 346 345 344 344 344 343 343 343 343 343 342 342 342 342 341 341 341 341 341 340 340
358 357 357 356 353 354 357 357 357 358 358 357 356 356 356 356 356 356 355 353 350 348 346 343 341 339 338 337 337 341 341 341 343 344 346 347 348 349 350 351 351 351 351 348 342 336 335 338 341 344 345 347 348 347 347 346 347 348 347 347 346 346 346 346 346 345 344 344 344 344 343 343 343 343 342 342 342 341 341 340 341 341 340 340 339
357 356 357 356 354 354 357 357 357 358 358 358 357 356 356 355 357 356 354 353 350 347 345 342 340 338 339 339 337 340 342 343 346 346 347 348 349 350 350 351 351 351 350 351 345 338 337 337 339 343 344 346 347 348 348 348 348 348 348 348 347 347 346 346 345 345 344 344 345 344 344 344 343 343 342 342 341 341 341 341 341 341 341 341 340
356 354 354 355 355 354 355 357 357 358 359 358 358 357 356 356 357 357 354 353 350 346 344 341 337 337 341 341 338 340 344 344 345 346 347 348 349 349 349 350 349 350 350 350 349 345 341 338 340 343 344 344 345 346 347 348 348 348 348 347 347 347 346 345 345 344 344 344 344 344 344 345 345 344 343 342 342 343 343 342 342 342 342 341 341
357 354 353 355 355 355 355 357 357 359 359 358 356 356 357 357 357 357 355 352 349 344 340 339 337 337 340 340 337 340 343 343 344 345 345 346 348 348 349 349 349 349 350 350 350 349 346 343 342 342 343 343 343 344 345 346 346 347 347 347 347 346 346 345 344 344 344 344 344 344 344 345 344 344 343 344 344 344 343 342 342 342 342 341 341
357 356 356 355 355 355 355 358 360 358 358 359 358 356 359 358 357 358 356 352 348 345 340 339 339 336 335 338 338 339 342 342 343 344 344 345 346 346 347 347 347 347 348 349 349 349 349 347 346 345 343 342 342 343 343 343 344 345 346 347 347 346 345 345 345 345 345 345 345 345 344 344 344 344 343 343 343 343 343 343 343 342 343 342 342
358 357 358 356 355 356 356 358 361 360 359 360 359 358 358 357 355 355 355 352 348 345 341 335 336 337 336 338 336 335 339 342 342 342 343 345 344 343 344 344 345 345 345 347 347 348 348 348 348 347 344 342 342 342 342 343 343 343 344 346 347 347 347 346 345 345 345 345 345 344 344 344 345 345 345 344 344 344 344 343 343 343 342 342 342
359 358 358 357 355 356 357 359 361 360 360 360 361 360 357 356 357 354 353 351 348 345 341 338 339 340 340 342 339 335 337 339 341 343 343 344 343 342 342 342 343 343 343 345 346 347 348 347 347 348 347 345 345 343 344 344 343 343 343 345 346 346 346 347 346 346 345 346 346 345 345 345 345 345 345 344 343 343 343 343 343 342 342 342 342
360 358 358 358 357 357 358 360 360 359 360 360 359 361 358 357 358 355 352 351 349 345 342 342 341 337 341 349 348 343 344 342 340 341 343 343 342 341 342 340 340 341 342 343 344 345 347 347 347 348 349 347 347 345 345 344 341 341 342 343 343 343 345 345 345 346 346 345 345 345 345 345 345 344 344 344 343 343 342 340 339 337 338 341 342
360 359 358 358 359 359 358 359 360 358 359 359 357 358 358 356 356 355 353 352 349 344 341 341 340 341 348 355 350 348 350 347 342 341 340 342 342 341 342 340 339 340 339 340 340 341 344 346 345 346 347 347 347 345 344 340 336 336 340 341 341 342 342 342 343 345 347 346 344 344 344 342 341 340 339 337 336 335 332 329 329 327 327 331 333
361 360 358 358 359 359 359 361 362 358 357 359 359 357 357 357 355 353 353 354 350 343 341 341 340 342 348 354 356 357 355 344 343 347 341 340 343 341 341 340 339 340 337 337 338 339 341 343 343 344 344 345 346 345 343 340 334 329 332 336 338 340 340 338 339 340 338 336 334 332 331 328 327 326 325 323 321 321 319 318 319 318 317 319 320
361 359 358 359 358 359 360 362 363 359 356 359 360 357 355 357 357 354 355 353 349 346 344 340 339 341 342 347 352 355 355 346 351 357 347 340 342 342 343 341 339 339 337 337 338 339 340 340 342 343 342 343 343 344 344 343 339 329 323 324 328 333 332 328 328 325 322 320 319 318 318 317 318 317 316 316 316 316 316 316 316 317 317 318 318
360 359 358 359 358 360 363 363 362 360 359 360 361 358 356 358 356 355 354 351 348 348 345 339 340 343 341 343 344 344 349 348 353 359 354 349 343 341 343 341 340 341 338 338 339 339 339 340 341 341 341 341 341 343 344 346 345 335 322 317 318 321 321 318 318 317 316 318 319 320 321 321 321 320 319 318 318 317 317 317 317 318 320 322 323
360 358 358 359 359 361 363 363 362 361 362 362 361 359 357 358 357 355 354 351 347 346 345 341 341 342 339 341 343 342 344 346 346 349 353 355 349 343 343 341 340 341 338 337 338 337 338 340 339 339 339 339 340 342 341 341 341 332 320 317 317 317 317 316 317 318 320 323 324 325 326 326 326 325 325 324 323 323 322 322 322 323 325 326 327
359 357 357 359 360 360 361 363 363 362 362 362 361 360 358 359 358 355 355 353 347 344 346 345 341 340 338 340 342 341 342 345 345 343 347 353 353 347 344 341 341 341 337 335 336 335 336 339 340 339 339 339 339 339 335 333 332 326 320 319 318 318 318 320 321 323 325 326 327 328 328 328 328 329 329 329 329 329 328 328 328 328 329 329 329
360 358 357 358 360 361 362 363 364 363 361 361 361 360 359 360 359 357 355 354 349 345 346 349 346 341 340 341 344 343 342 344 344 343 344 349 351 347 342 342 344 341 337 335 334 334 335 336 338 337 338 339 338 337 336 336 335 329 324 323 322 322 324 325 326 327 327 328 328 328 329 329 329 329 329 329 330 330 330 330 330 330 330 330 330
361 360 359 359 360 361 362 363 364 362 361 361 361 359 359 360 360 359 357 354 350 347 346 348 347 345 342 341 344 344 343 344 344 343 344 346 349 348 341 339 340 338 338 337 335 336 336 334 334 337 338 337 337 337 337 339 339 335 331 327 327 327 327 328 328 328 328 328 329 329 329 329 329 329 329 329 330 330 330 330 330 330 330 330 330
362 362 361 360 361 361 362 362 363 362 360 360 360 359 359 360 361 359 358 356 352 349 346 344 344 346 346 344 343 343 343 343 343 343 343 344 347 349 342 339 344 342 338 338 336 336 338 336 334 336 337 337 338 338 338 339 339 338 336 332 328 329 329 329 329 329 329 329 329 329 329 329 330 330 330 330 330 330 330 330 330 330 330 330 330
362 363 362 361 361 362 362 362 361 361 360 360 360 360 358 359 360 359 358 357 352 350 347 344 344 345 347 347 343 341 342 341 340 343 342 340 344 347 343 341 345 344 339 338 339 337 338 337 336 336 335 337 338 338 338 339 338 338 338 334 330 328 329 329 329 329 330 329 330 330 330 330 330 330 330 330 330 330 330 330 330 330 330 330 330
362 362 361 361 361 361 362 362 361 359 359 359 360 360 359 359 359 358 359 358 355 352 349 346 345 344 344 347 344 341 342 340 339 342 340 339 341 344 345 345 343 340 341 340 339 338 338 337 336 337 336 336 337 338 338 339 339 338 338 336 332 331 330 330 330 329 329 329 329 329 330 330 330 330 330 330 330 330 330 330 331 331 331 331 331
362 362 361 361 361 360 361 362 361 360 359 359 359 360 360 359 359 359 360 360 356 352 351 349 347 345 343 343 343 344 343 341 340 340 339 340 341 338 344 353 352 346 344 342 339 338 337 337 336 336 337 338 338 338 339 338 338 339 339 337 335 334 335 334 334 332 330 330 329 329 330 329 330 330 330 330 330 329 329 329 330 330 331 332 332
362 362 361 360 360 360 360 362 362 361 360 359 360 361 360 360 359 359 360 360 358 354 352 351 349 347 344 343 344 344 344 343 341 341 338 339 341 339 339 348 353 354 352 348 345 341 337 336 336 337 336 337 337 338 338 339 338 339 339 338 336 336 337 337 337 336 334 332 331 330 329 329 329 329 329 329 329 329 328 326 325 325 326 328 328
362 361 361 360 360 360 361 362 363 363 362 360 360 362 362 361 360 361 360 360 358 355 353 352 350 348 347 345 345 345 344 345 343 342 340 338 340 342 340 340 347 355 357 354 350 344 339 337 335 337 338 336 338 337 338 339 339 338 338 337 336 336 336 336 336 337 336 335 333 331 331 330 330 329 329 329 328 326 325 323 322 322 322 323 324
360 361 361 360 360 360 360 362 364 364 363 362 362 363 363 363 362 361 360 360 359 357 355 352 351 349 347 346 346 344 343 344 344 343 342 341 341 342 344 342 342 348 352 356 355 345 339 339 336 336 338 337 337 338 338 339 339 338 338 337 337 338 337 337 337 337 336 335 333 331 331 330 329 329 329 327 326 325 323 322 321 321 321 322 324
359 358 360 361 361 360 360 362 364 365 364 364 364 364 362 363 363 362 361 360 360 358 356 354 352 351 349 347 346 345 342 343 344 344 343 343 343 343 344 343 342 343 344 350 357 349 338 338 338 336 339 339 339 340 339 339 339 339 339 338 338 338 338 338 338 337 336 335 332 330 330 330 328 328 327 327 326 326 325 324 322 321 321 324 326
361 358 359 361 362 361 361 361 364 365 365 364 364 364 363 362 362 362 363 363 360 359 357 355 353 352 350 348 347 345 343 342 343 344 344 343 343 343 344 343 342 343 342 344 352 351 340 338 339 338 339 340 340 341 341 340 340 340 339 339 337 336 337 338 338 336 336 336 333 329 328 328 327 327 328 328 329 328 327 325 322 320 321 324 326
362 360 357 359 361 363 363 362 363 365 365 364 364 364 363 362 361 361 362 362 361 360 358 357 354 352 351 350 348 346 346 344 343 344 344 344 343 344 345 343 342 342 343 343 348 349 345 341 341 340 341 341 340 340 340 340 339 340 340 339 337 335 337 338 338 338 337 336 332 329 328 328 328 329 329 330 329 328 327 324 321 319 320 322 325
362 362 359 358 359 363 365 363 364 365 365 364 364 364 363 362 361 360 361 362 362 361 360 358 356 353 352 352 350 348 347 346 344 344 345 344 344 344 345 344 343 342 343 343 345 347 346 344 342 341 341 342 342 340 340 339 341 341 341 339 338 335 336 339 340 340 337 335 334 333 332 333 332 331 331 331 330 328 325 322 320 319 320 322 324
361 361 361 361 359 360 364 365 365 364 364 364 363 364 364 362 362 360 359 360 361 361 361 359 357 355 354 353 352 350 348 347 346 345 345 345 344 344 345 344 343 343 343 343 344 346 346 345 343 342 341 340 341 342 341 340 339 341 341 341 340 338 337 339 341 340 337 336 337 337 336 335 335 334 333 332 331 329 325 321 320 322 323 323 323
361 361 360 362 362 360 362 364 365 364 364 364 363 363 364 364 363 361 359 360 361 360 360 359 359 356 355 354 353 351 350 349 349 347 347 346 345 344 345 344 343 343 343 343 343 344 346 345 343 342 342 342 340 340 342 341 340 340 341 342 342 341 338 339 340 339 338 337 337 337 337 337 336 335 334 333 333 331 326 322 322 324 325 324 323
361 361 361 361 363 363 362 363 365 365 364 364 363 363 363 364 364 361 360 360 360 360 360 359 359 358 356 355 353 353 351 350 350 349 348 347 346 345 346 345 343 343 344 345 344 344 344 346 345 343 342 343 342 341 341 341 342 341 340 340 342 342 340 340 340 340 339 338 338 338 338 337 337 336 336 336 335 333 329 326 326 327 326 325 322
360 361 362 362 364 364 364 363 364 365 365 364 364 364 363 364 365 363 362 360 360 360 361 359 358 358 357 356 355 354 353 351 351 350 348 347 346 345 345 346 345 343 343 344 345 345 344 345 345 344 343 343 343 343 341 341 341 341 341 340 339 340 341 341 341 340 339 338 338 339 339 338 338 338 337 336 334 333 332 331 329 328 327 324 322
362 362 363 364 363 364 365 364 364 365 365 364 364 364 365 365 365 364 363 362 360 360 361 360 359 359 357 357 356 355 354 352 351 350 349 347 346 345 345 346 346 344 343 344 345 346 345 345 344 344 343 343 344 344 343 342 341 340 341 341 341 339 340 341 341 341 340 339 339 339 338 338 338 337 337 336 334 333 332 332 331 330 329 327 325
364 362 362 364 364 364 365 366 366 364 364 364 365 364 365 365 366 366 365 363 362 361 360 361 360 360 359 358 357 357 356 354 351 350 350 348 347 346 345 345 345 345 345 344 344 346 347 347 347 345 343 342 343 344 344 343 342 341 340 341 342 341 340 340 341 340 341 340 340 339 338 338 338 337 336 335 335 334 333 332 332 332 332 330 328
365 363 362 361 363 365 366 366 367 366 365 365 365 365 365 365 365 366 364 364 363 361 361 361 362 361 361 360 358 358 356 356 353 351 350 349 347 346 345 346 345 346 345 345 345 345 345 347 348 347 345 343 343 345 345 344 343 342 341 342 342 342 342 342 341 341 341 341 341 340 340 339 338 336 336 335 335 334 334 333 333 333 332 331 330
363 365 364 361 361 365 367 368 368 368 366 365 365 364 364 365 364 365 364 365 363 363 362 362 362 362 362 361 361 359 357 357 355 353 351 350 349 346 345 345 345 345 345 346 345 345 345 346 347 348 347 345 342 344 345 345 344 343 344 343 343 342 342 343 343 342 341 341 343 343 342 341 339 337 336 337 336 335 334 333 332 332 331 331 329
360 363 365 363 361 362 366 368 370 369 367 366 365 364 363 363 363 363 364 365 365 363 362 362 362 362 362 361 361 360 359 358 357 356 353 351 350 349 346 345 345 345 345 346 346 346 346 346 347 346 347 346 344 343 343 345 345 344 344 344 345 344 343 343 343 344 343 342 343 344 343 341 340 339 338 337 335 334 334 333 332 331 330 329 328
359 362 365 365 363 361 364 368 370 371 369 367 366 366 365 363 362 362 363 364 365 364 363 362 362 362 362 362 362 360 359 358 358 357 356 353 351 350 348 346 345 345 345 345 345 346 346 347 347 346 346 346 345 343 343 344 345 344 344 344 345 344 344 344 344 344 343 341 341 343 343 342 341 339 337 335 333 332 333 333 332 331 329 327 326
360 361 363 366 365 363 363 367 370 371 371 370 369 368 366 365 363 362 362 363 364 363 363 362 361 362 361 361 361 360 359 359 359 358 357 355 352 352 350 348 346 346 346 345 345 345 346 346 346 346 346 346 346 345 343 343 343 343 344 344 344 343 343 344 344 344 344 341 341 343 344 342 340 338 336 334 332 332 333 332 331 330 328 326 325
362 362 363 365 366 365 363 365 367 370 370 371 371 370 367 366 364 362 362 362 363 362 362 361 361 360 360 360 360 359 359 358 359 357 357 356 354 352 352 350 348 348 348 347 346 346 346 346 347 346 345 346 346 345 344 343 342 343 343 343 343 343 342 343 344 344 343 342 341 343 343 341 339 337 335 334 332 331 331 329 328 327 327 325 324
364 364 364 366 367 367 366 365 366 368 369 370 371 371 369 367 366 364 363 362 363 363 363 362 361 360 359 359 360 359 358 358 358 358 357 356 355 353 352 351 350 350 350 350 349 348 348 347 347 347 346 346 345 345 344 344 343 342 342 341 341 342 342 342 343 343 343 342 341 341 341 340 338 336 335 334 331 328 328 327 327 327 325 324 323
366 365 366 367 367 367 368 367 367 367 367 367 369 370 371 369 368 366 364 362 363 364 364 364 363 362 361 360 360 359 359 357 358 358 358 357 356 354 353 352 351 350 350 351 350 350 349 348 348 348 348 347 345 345 344 344 343 342 341 342 342 342 343 344 344 343 342 342 341 340 339 338 336 335 334 331 329 328 326 326 326 325 324 323 323
367 367 367 367 367 367 369 369 368 366 366 365 366 367 369 370 369 367 365 363 364 364 364 364 364 363 362 361 360 360 360 359 358 357 358 358 357 355 354 352 352 351 351 351 351 351 350 350 349 348 348 348 348 346 345 345 343 341 341 342 342 342 343 344 343 342 342 341 340 339 339 337 335 334 333 330 327 327 326 326 325 324 323 323 322
367 367 368 368 367 367 368 369 368 368 366 366 365 364 366 368 369 368 366 364 364 363 363 363 364 364 364 363 361 361 361 360 359 358 358 358 357 357 355 354 353 352 351 350 351 351 351 350 350 349 348 348 348 348 346 345 343 341 341 342 342 342 343 343 343 341 340 339 338 338 338 337 336 335 332 328 326 326 325 325 324 323 323 322 321
368 367 368 369 369 369 369 369 369 368 368 368 366 365 365 366 368 368 367 366 365 364 364 363 363 364 365 365 364 363 361 361 361 359 358 358 357 357 356 355 354 353 352 351 350 350 350 350 349 349 348 347 347 347 347 345 343 341 342 342 341 341 341 341 341 341 340 339 338 338 338 337 337 334 330 328 327 326 324 324 323 323 322 321 321
Wind_Speed
10 8 8 7 6 5 6 4 2 2 1 2 1 2 2 1 1 1 0 2 2 0 1 1 1 3 4 3 4 3 5 11 12 11 10 10 10 10 9 9 10 9 9 9 9 9 9 9 9 8 8 8 8 8 7 7 8 9 9 9 9 8 7 6 6 6 6 5 5 4 3 3 2 1 1 0 0 1 2 2 3 3 3 4 4
9 9 8 7 7 6 5 4 4 4 2 1 2 0 2 2 1 2 2 2 2 1 1 1 4 5 4 4 5 5 4 10 14 12 11 11 10 10 9 9 10 10 9 9 8 8 9 9 9 9 9 8 8 8 7 7 7 9 10 9 8 8 7 6 6 6 6 5 5 4 3 3 2 1 1 1 1 1 2 2 3 3 3 4 4
8 9 8 8 7 7 5 4 3 3 2 1 1 2 3 2 1 2 2 1 0 1 2 3 5 4 4 4 5 5 3 9 15 13 12 11 9 10 9 8 9 9 9 9 8 8 9 9 9 9 9 8 8 8 7 7 7 8 10 10 8 7 8 7 6 6 5 5 5 4 4 3 3 3 3 2 3 3 3 3 3 4 4 4 4
7 9 8 8 7 7 6 5 4 3 2 2 1 2 4 3 2 2 1 0 0 1 2 2 3 4 5 4 4 4 5 8 13 11 11 10 9 10 9 8 8 8 8 8 8 8 9 9 9 9 9 9 8 8 8 8 8 8 9 9 7 7 8 7 6 6 6 5 5 4 4 5 4 4 4 4 4 4 4 5 5 5 5 5 4
6 9 6 6 6 6 6 6 6 4 4 4 3 4 4 3 3 1 2 2 1 1 1 2 3 3 4 1 6 6 4 7 10 10 10 10 9 10 9 9 8 8 8 7 7 7 8 9 9 9 9 9 9 9 8 8 8 8 8 8 7 7 8 8 7 7 6 6 5 5 5 5 4 4 5 4 4 4 5 6 6 6 5 5 5
7 8 7 6 6 6 6 6 7 5 4 4 2 3 3 2 2 1 1 2 2 2 2 2 4 2 1 5 9 6 4 8 9 9 9 9 10 10 9 9 9 8 7 6 6 7 7 8 8 9 9 9 10 10 9 9 9 8 8 8 7 7 7 8 7 7 6 6 6 6 5 5 5 4 5 5 5 5 5 6 6 6 6 6 5
8 9 9 7 6 7 7 6 6 5 4 4 2 2 2 1 1 2 2 2 2 2 3 3 2 3 2 4 7 7 7 9 7 6 7 8 10 10 9 9 8 8 6 6 6 6 6 7 7 8 8 9 10 10 9 9 9 8 7 7 7 7 7 7 7 7 7 7 7 7 6 6 6 5 6 6 6 7 7 7 7 7 7 7 7
10 9 9 8 6 6 7 7 5 5 4 2 2 3 1 1 0 2 2 1 3 3 3 4 3 5 4 4 7 8 7 7 5 4 6 7 9 10 10 9 8 8 6 5 5 5 6 6 7 7 7 8 8 8 9 9 8 7 7 6 6 7 7 7 7 7 7 7 8 8 8 8 8 8 8 8 8 8 9 9 9 9 9 9 9
12 11 10 8 7 5 6 7 5 5 4 2 2 3 1 1 1 2 2 1 1 2 3 3 4 2 4 5 6 8 9 8 6 4 4 6 9 10 10 9 9 8 7 5 4 5 6 7 6 7 7 7 7 7 7 7 7 7 7 6 6 6 6 7 7 8 8 8 8 8 8 9 8 9 9 9 9 9 9 10 10 10 10 10 10
14 12 11 9 7 6 5 6 6 5 4 4 3 2 1 1 1 2 1 1 1 1 3 4 4 2 7 7 4 8 9 8 7 4 4 6 9 9 9 9 7 7 7 6 5 4 6 8 8 7 6 5 6 6 7 7 6 6 6 6 7 7 7 7 8 8 8 9 8 8 8 9 8 9 9 9 10 10 9 9 10 11 11 12 11
14 13 12 10 8 7 6 5 6 5 4 4 4 3 2 2 1 2 2 0 1 2 4 4 3 6 10 8 5 7 7 7 7 5 4 6 8 8 9 8 7 7 7 7 5 4 5 7 8 7 6 5 5 5 5 6 6 6 6 7 8 8 8 9 9 9 9 10 9 8 8 8 8 8 8 8 9 10 10 9 9 10 11 11 11
14 14 12 11 9 8 7 7 6 6 5 5 4 3 3 2 2 2 2 1 1 3 3 2 3 6 7 4 3 4 5 5 4 4 5 6 8 8 8 7 7 7 6 6 7 7 6 5 6 6 6 7 6 5 4 5 6 6 6 7 7 7 8 8 8 8 9 9 8 8 7 7 8 7 7 7 8 9 9 8 8 9 9 10 10
14 14 13 12 11 9 8 8 8 7 6 5 3 3 3 2 2 3 4 2 2 3 3 2 3 4 3 5 5 2 4 5 4 6 5 6 8 8 8 8 8 7 5 6 7 8 6 4 6 6 6 7 7 6 5 4 4 4 5 6 6 6 6 7 7 7 7 7 7 7 7 7 7 7 6 7 8 8 7 7 8 8 8 9 8
15 15 13 12 12 11 9 9 8 8 7 6 4 4 3 2 2 3 5 4 2 4 5 3 3 6 4 5 6 2 4 5 6 8 6 6 8 8 8 7 9 10 6 7 8 8 6 5 7 7 7 8 8 7 6 5 3 3 5 6 6 6 6 6 6 6 6 5 5 5 5 5 5 6 6 7 7 6 6 6 6 6 6 6 6
15 15 15 14 13 12 11 10 9 8 8 7 6 5 4 4 4 4 5 5 4 3 3 2 1 6 5 2 4 2 2 4 6 7 8 5 7 7 6 5 7 8 5 9 11 9 7 6 7 8 9 8 7 6 5 4 3 3 5 5 5 6 5 5 5 5 4 3 3 3 3 3 4 4 4 4 5 4 5 5 5 5 6 5 5
16 16 15 15 14 13 13 11 10 10 9 8 7 6 5 4 5 6 6 6 6 5 4 3 1 5 3 1 3 3 2 5 6 8 9 6 7 7 7 6 5 4 5 9 10 8 8 6 6 7 8 8 7 7 6 5 4 4 5 5 5 5 4 4 4 4 3 3 2 2 2 2 1 1 1 2 2 2 3 4 4 4 5 5 4
16 16 16 15 15 15 13 11 11 11 10 9 7 7 6 6 5 7 7 6 5 8 6 3 2 1 1 2 1 2 1 5 5 5 7 8 9 7 7 7 4 3 6 8 7 8 9 7 6 6 6 6 8 8 8 7 5 5 5 5 5 5 5 5 4 5 4 4 3 3 2 2 2 2 2 2 3 3 3 4 4 4 5 5 4
17 17 17 16 16 16 14 13 13 12 11 10 10 9 9 8 6 6 6 6 3 7 8 5 3 3 2 2 2 1 1 3 3 2 4 9 10 7 6 6 5 4 6 9 11 12 9 8 9 7 5 5 6 8 8 7 5 5 5 6 6 5 6 6 6 6 6 5 5 4 4 3 3 3 3 3 3 3 3 4 4 4 4 4 4
18 18 18 17 17 16 15 15 14 13 11 11 11 10 9 8 8 8 7 6 4 6 9 8 5 4 4 4 3 0 2 2 3 1 4 5 5 9 8 6 6 7 8 9 13 14 10 9 10 8 7 5 5 7 7 8 7 5 4 5 5 6 6 7 7 7 7 6 5 4 4 4 4 3 3 3 2 2 2 2 3 3 3 4 4
19 19 19 18 17 17 17 16 15 13 12 12 11 10 10 9 9 9 8 8 7 5 8 8 6 5 5 5 3 1 1 3 5 4 4 2 3 7 9 9 10 10 7 5 10 14 11 9 10 9 8 6 7 9 7 8 9 6 5 6 6 6 6 6 7 6 6 6 5 4 4 4 3 3 3 2 2 2 1 1 2 2 3 4 4
21 20 20 19 19 18 17 17 16 14 13 13 12 12 11 10 11 11 10 10 9 7 8 8 6 6 7 7 5 3 4 3 5 3 3 2 2 3 8 11 11 13 9 4 6 11 10 10 11 9 8 7 8 9 5 5 8 6 5 6 6 6 7 6 6 6 5 5 4 4 3 3 3 2 2 1 1 1 1 1 1 2 3 4 5
22 21 21 21 20 19 18 17 17 15 14 13 13 14 13 12 13 13 12 11 10 10 10 8 5 6 9 9 6 4 6 5 6 7 5 2 2 4 8 9 8 11 11 8 9 9 9 10 8 8 11 10 9 8 5 5 6 5 5 6 6 6 6 6 6 5 5 4 4 3 2 2 1 1 1 1 1 2 2 3 3 4 4 5 5
22 21 21 21 21 20 19 18 17 16 15 14 14 14 14 14 13 13 13 13 12 11 11 10 7 6 8 10 8 6 6 5 7 10 7 4 3 4 7 10 8 10 9 9 11 11 11 8 5 9 12 10 10 10 9 7 6 5 5 5 6 6 6 6 6 5 5 4 4 4 3 3 3 3 3 3 4 4 5 6 6 7 7 8 8
21 21 22 22 22 22 20 18 18 17 17 16 15 14 15 15 15 15 15 14 13 12 12 12 10 7 7 9 10 10 8 8 9 8 7 7 4 3 5 9 9 10 9 9 9 8 9 6 4 7 8 7 10 12 11 10 9 8 8 7 7 8 7 7 7 6 6 6 6 6 5 5 5 5 6 6 6 7 8 9 9 10 11 11 12
22 23 23 22 23 23 22 20 20 19 18 17 16 15 15 17 17 17 16 16 15 14 14 13 11 11 9 9 10 11 11 11 10 9 9 7 4 4 3 3 6 10 10 9 7 5 6 7 7 8 8 8 10 10 10 10 10 10 10 10 9 9 9 9 9 8 8 8 8 8 8 8 8 8 8 9 9 10 10 11 12 13 13 14 15
23 23 23 23 23 24 24 23 21 21 20 18 18 17 16 17 18 18 17 17 17 16 15 14 13 13 12 11 11 10 11 11 10 10 10 9 7 6 5 3 2 9 10 8 8 8 9 10 11 12 12 11 10 10 10 9 11 12 13 12 10 10 10 10 11 11 11 10 10 10 10 10 10 10 11 11 12 12 13 14 14 14 14 14 15
25 24 23 23 24 25 25 24 23 22 22 21 19 19 17 17 18 18 17 18 18 18 16 15 14 15 15 14 13 12 11 11 11 11 11 10 11 10 6 1 1 4 8 8 9 10 10 11 12 14 15 14 13 13 12 11 12 12 13 13 10 10 10 11 12 12 13 13 13 13 13 13 13 13 14 14 15 15 16 15 14 14 13 13 14
25 24 24 24 25 25 25 25 24 23 23 23 22 20 20 20 19 19 18 18 19 19 18 17 16 16 16 16 15 15 13 11 11 12 13 10 9 12 11 7 3 2 4 5 7 9 11 12 13 15 17 16 15 15 13 12 12 12 12 12 12 11 12 13 13 13 13 14 15 15 15 15 15 15 16 16 17 17 17 16 14 13 13 13 13
24 24 25 25 25 26 26 25 24 24 24 24 24 22 22 22 21 21 21 19 20 21 20 19 18 17 17 17 17 18 16 11 10 12 13 12 8 9 10 11 8 4 2 3 4 7 11 14 15 17 18 19 18 16 14 14 14 14 14 13 12 13 14 15 15 14 13 14 15 16 16 16 16 16 17 17 17 17 16 15 14 14 13 13 13
24 23 24 26 26 26 26 25 25 25 24 24 25 23 23 23 22 22 23 21 21 22 21 20 19 18 18 18 19 21 19 13 11 12 12 12 11 8 8 10 11 8 4 2 4 8 12 13 14 17 19 20 18 16 15 16 16 15 15 14 13 13 14 15 15 15 14 14 14 15 15 15 15 16 16 16 16 15 14 14 13 13 13 13 12
26 25 24 25 27 27 26 26 26 26 26 25 25 25 24 24 23 22 23 23 22 23 23 22 21 20 20 19 19 21 21 16 13 13 13 13 14 12 10 11 12 13 11 5 2 7 11 11 9 13 18 18 17 15 14 15 16 16 16 15 14 14 15 15 14 15 15 14 14 14 14 14 15 15 15 14 14 14 14 13 13 13 13 13 12
27 28 26 25 26 27 27 26 26 26 27 27 27 26 26 26 24 23 23 24 24 24 24 24 22 21 21 22 21 21 22 19 16 16 15 14 15 15 14 14 14 15 15 10 5 6 10 10 7 9 16 16 15 14 14 15 16 16 16 17 16 16 16 16 16 16 16 16 16 15 14 14 15 14 14 14 14 14 14 13 13 13 13 13 13
28 29 29 28 26 26 27 27 27 27 28 28 28 28 28 28 27 24 23 25 26 25 25 25 24 23 23 24 23 22 22 22 20 18 17 16 16 17 17 17 17 17 17 15 10 9 11 11 9 9 14 15 16 16 15 16 17 16 16 17 17 17 16 16 17 17 17 16 16 15 14 14 14 14 14 14 14 14 14 13 12 12 12 13 13
29 29 29 30 29 27 27 28 29 28 29 29 29 29 30 30 29 27 25 26 27 27 26 27 26 25 24 25 25 24 22 23 22 21 20 18 18 19 19 19 20 20 20 19 15 12 13 13 13 12 13 15 16 17 17 17 17 17 17 18 17 17 17 16 16 17 17 16 15 15 14 14 14 14 14 14 14 14 14 13 11 11 12 13 14
30 30 29 29 30 30 29 29 30 30 30 31 31 30 31 31 31 30 28 27 29 29 28 28 28 27 26 26 26 26 24 24 24 23 22 21 20 21 22 21 21 21 21 21 19 16 14 15 15 15 16 15 14 15 16 17 17 16 17 18 18 17 18 17 17 18 18 16 16 16 16 16 16 15 15 15 15 15 14 12 11 12 13 15 15
29 31 30 29 30 31 31 30 30 31 31 32 32 32 32 32 32 31 30 29 30 31 30 29 29 28 28 27 27 27 26 26 26 26 25 24 23 23 23 23 23 22 22 23 23 20 16 15 16 17 18 18 17 15 15 16 17 17 16 16 17 17 17 17 18 18 18 17 16 16 17 18 17 17 16 17 17 16 15 13 13 14 16 16 16
29 30 31 31 30 32 33 32 31 32 32 32 33 33 32 32 33 33 31 30 30 31 32 31 30 30 29 29 28 28 28 28 28 28 28 27 26 25 25 25 25 24 23 23 25 24 20 17 17 17 17 18 18 19 18 17 17 18 18 18 18 17 17 17 17 17 18 18 17 16 17 18 18 18 18 18 18 17 15 15 16 17 18 17 15
31 30 31 32 32 32 33 33 33 32 33 33 33 34 33 32 32 32 32 31 31 31 32 32 31 31 31 30 30 29 31 31 30 30 30 30 29 28 27 27 26 26 25 23 24 25 25 22 18 17 17 17 18 19 20 21 19 19 20 20 20 19 18 18 18 17 17 18 18 18 19 19 20 20 19 18 18 17 17 17 17 17 16 15 12
31 30 30 32 33 33 33 34 34 33 34 34 34 35 34 32 31 32 31 31 31 31 31 32 32 32 32 32 31 31 33 33 33 32 32 32 32 31 30 29 27 27 27 25 24 24 25 24 21 19 19 19 19 18 19 20 21 20 20 20 20 21 21 20 20 19 18 18 18 18 19 18 18 19 19 18 17 18 18 17 16 15 13 12 10
31 31 30 31 32 33 34 34 34 34 34 35 35 35 35 33 32 32 32 31 31 31 31 32 32 33 33 33 34 34 35 36 36 35 35 35 33 32 32 31 29 29 28 27 25 24 23 22 21 21 21 20 20 20 19 19 21 22 22 20 20 21 22 23 22 21 20 18 17 17 17 17 18 18 18 18 17 16 16 15 15 15 14 12 10
31 30 30 30 30 32 33 34 34 35 35 36 37 36 37 36 34 33 34 34 32 32 32 32 32 33 33 33 34 35 37 38 38 38 37 37 36 34 34 33 31 30 29 27 26 25 23 21 20 20 21 21 21 21 21 21 23 23 22 21 20 19 20 22 24 24 22 20 17 16 17 17 16 16 16 16 16 15 15 15 15 16 15 14 12
31 31 31 30 30 31 32 33 34 36 36 37 39 40 40 40 38 35 34 35 34 33 33 32 33 33 34 33 34 35 37 38 39 40 39 38 38 37 36 35 35 33 30 28 27 26 24 22 21 21 19 20 22 23 23 23 24 22 21 21 21 20 18 17 19 22 23 23 20 18 18 16 14 14 15 16 16 15 16 16 17 16 14 12 11
33 32 32 32 32 31 31 33 34 36 37 38 40 43 44 43 41 38 35 35 35 35 34 34 34 34 34 34 35 35 37 39 40 40 41 40 39 38 37 37 37 36 34 31 28 27 25 23 23 23 21 21 23 24 23 23 23 23 23 22 21 20 18 16 14 14 18 22 21 20 19 18 17 17 16 16 16 16 17 18 17 16 13 10 10
34 33 33 34 34 32 31 32 33 35 37 38 40 43 45 45 44 41 37 35 35 36 36 36 35 35 34 35 35 35 36 39 41 41 42 42 41 39 38 37 38 38 37 35 33 31 29 26 25 25 25 23 23 24 25 24 24 25 25 24 22 21 20 18 16 14 16 18 20 20 20 20 19 18 17 18 17 18 20 19 17 16 13 9 8
35 35 35 35 35 35 34 33 34 34 35 36 39 42 45 46 46 44 39 36 37 37 38 37 37 36 36 35 35 35 35 36 40 42 43 43 43 41 40 38 37 38 39 39 38 35 33 31 28 28 28 26 25 26 27 26 24 25 26 26 25 23 21 20 19 18 17 17 19 19 18 18 17 17 18 18 16 17 19 17 15 13 11 9 10
35 35 35 35 35 36 36 35 34 34 34 34 36 40 43 46 47 46 42 38 38 38 39 40 39 38 38 37 36 36 34 34 37 41 42 43 44 44 42 41 40 39 40 41 41 38 36 34 32 32 31 30 29 28 28 28 26 25 26 27 26 24 23 22 21 19 16 16 18 18 16 16 16 16 20 19 14 13 14 13 11 10 10 11 12
34 34 34 34 34 34 36 35 33 32 33 34 35 38 42 44 47 48 46 41 38 38 38 39 40 40 40 39 38 36 35 33 35 38 41 42 43 44 44 43 43 41 41 44 44 42 40 38 36 34 32 33 32 29 27 28 28 26 25 26 26 25 22 20 19 18 15 15 18 17 14 15 16 16 20 20 14 10 9 9 8 9 10 11 13
31 31 32 32 32 32 32 33 34 34 33 33 35 38 40 43 45 48 49 45 39 37 37 37 39 40 40 39 38 37 36 36 36 38 40 40 41 42 43 43 44 42 42 44 46 45 44 43 40 35 31 31 32 31 29 27 27 26 23 21 22 22 19 16 16 17 16 16 19 19 16 15 16 17 17 15 11 8 7 6 7 10 13 15 16
28 29 30 31 31 31 31 32 35 36 34 33 34 36 38 41 45 48 50 47 42 39 38 36 36 38 39 40 39 37 37 37 37 38 39 40 39 39 41 42 41 41 41 42 42 44 46 45 43 39 33 30 29 30 30 28 28 27 24 21 20 20 17 14 13 15 18 18 20 21 19 17 17 17 15 11 9 9 9 8 10 14 16 16 14
28 27 27 28 29 30 32 32 34 35 34 33 34 35 35 38 43 48 49 47 43 41 39 37 35 35 37 39 40 40 38 38 38 39 39 40 40 39 39 39 39 40 41 39 37 39 44 45 43 41 38 34 30 29 30 29 28 29 29 26 22 20 17 15 14 15 16 19 21 22 21 19 18 18 16 11 9 11 12 10 10 12 12 12 12
27 26 26 26 27 28 30 30 31 32 32 31 33 35 36 36 40 46 48 45 42 40 37 36 36 35 36 37 39 42 42 39 38 39 41 42 43 41 39 38 38 41 43 40 37 37 41 44 44 43 42 40 35 32 30 29 27 28 31 29 25 21 18 17 17 14 10 14 20 23 23 22 19 19 17 12 8 9 11 9 7 8 10 12 13
Wind_Direction
169 174 184 178 177 171 150 148 158 152 151 165 157 4 357 306 280 286 339 315 319 323 311 282 154 120 130 131 135 133 132 146 138 121 130 132 125 125 130 140 149 154 162 165 165 164 164 164 164 163 162 163 165 168 171 169 174 185 186 178 175 169 164 168 166 163 166 167 165 168 171 174 177 179 188 215 43 8 359 1 359 357 356 354 350
177 170 176 171 165 174 174 176 173 181 215 143 109 349 282 268 283 312 290 295 334 7 354 80 122 125 137 153 166 170 158 150 141 123 125 134 130 130 133 135 141 146 153 162 164 170 173 172 172 169 168 169 168 169 171 171 175 187 188 185 187 179 172 176 176 172 174 177 177 181 189 199 210 229 242 269 289 304 317 328 332 333 339 339 337
179 168 170 170 172 180 187 197 184 186 245 345 95 244 259 269 312 294 270 232 296 47 40 98 132 147 159 180 184 165 133 133 131 124 126 136 141 140 139 136 137 138 144 152 157 166 174 176 177 175 173 172 173 175 176 177 179 186 187 187 190 187 183 186 185 185 186 188 193 198 208 225 239 251 257 265 277 286 293 295 303 309 310 313 319
169 162 167 176 180 184 184 188 198 203 210 210 219 246 237 241 263 289 318 27 20 82 115 138 148 171 185 204 183 116 80 112 120 121 128 140 152 149 147 145 142 139 139 144 149 156 167 174 178 177 176 176 179 180 181 182 184 188 187 186 189 192 196 197 195 194 198 201 205 214 225 239 252 262 271 275 276 281 285 288 294 298 295 296 303
168 162 168 183 180 183 183 180 199 205 196 202 230 241 221 230 258 309 353 345 37 101 131 164 157 193 218 112 99 96 82 112 119 124 132 141 153 156 158 158 152 147 142 143 145 150 157 166 174 179 180 179 183 185 185 187 189 190 187 188 192 195 200 202 206 205 208 214 214 226 238 250 258 264 274 276 273 274 277 284 290 292 287 286 290
179 173 177 187 187 189 187 193 203 193 204 219 232 239 204 217 266 337 342 3 65 106 109 184 182 195 313 62 81 86 80 97 109 122 130 143 154 159 162 162 165 159 151 148 145 147 150 157 167 176 182 182 185 189 191 191 191 192 189 190 195 197 200 201 209 213 215 219 223 231 241 254 257 255 261 261 264 268 269 272 275 278 274 273 277
184 182 181 189 203 200 196 210 207 185 216 228 213 237 201 191 301 5 351 51 92 125 128 192 186 96 90 78 86 93 84 86 90 102 122 145 153 158 161 161 169 164 157 153 145 145 149 153 160 165 175 182 189 194 196 199 196 195 195 197 199 198 200 204 210 217 221 222 227 233 238 247 248 244 246 248 255 260 262 260 261 264 263 266 269
185 187 184 188 206 204 200 209 196 188 221 221 213 246 210 193 285 32 25 86 137 155 181 190 115 83 110 99 92 102 100 99 90 82 115 140 150 159 161 159 167 165 163 158 137 136 142 148 153 154 163 172 186 195 198 203 200 199 202 202 206 201 198 207 215 220 227 228 230 233 237 243 243 242 244 246 252 257 260 258 258 261 263 267 270
189 190 186 187 202 210 209 209 198 200 225 236 239 238 199 269 302 56 57 352 172 186 247 172 120 90 127 115 88 91 101 111 104 90 101 120 140 153 155 155 162 158 159 168 147 127 128 139 144 148 157 164 178 190 194 200 199 200 206 204 207 208 205 214 222 226 231 232 234 235 239 246 247 250 253 256 261 263 263 262 263 267 270 273 274
192 194 192 189 197 209 212 211 209 207 217 236 240 223 205 217 345 34 100 336 328 27 10 67 112 67 81 98 80 78 97 110 103 97 102 112 126 138 145 145 143 142 148 162 164 139 125 135 140 141 150 159 169 179 185 191 196 199 206 207 207 212 215 222 228 230 231 231 234 234 238 246 251 257 264 268 271 272 271 271 275 279 282 283 281
192 195 197 194 198 207 211 214 216 213 216 233 238 217 210 181 87 31 99 83 328 81 57 60 90 57 62 74 69 68 83 98 98 100 116 121 120 127 143 144 135 140 148 151 157 158 134 129 135 131 127 134 144 155 164 174 186 193 199 206 210 214 219 227 233 233 234 233 233 232 236 245 252 260 269 272 276 279 281 281 283 287 288 287 286
193 196 199 196 198 205 212 217 216 218 218 222 229 200 196 196 158 97 99 158 206 137 102 58 66 58 55 84 89 67 85 95 113 126 123 131 128 123 133 135 127 130 141 143 145 153 150 128 128 129 125 128 127 130 141 152 166 176 187 198 204 211 216 225 234 235 239 240 236 236 240 246 253 260 268 275 281 285 286 288 291 292 291 291 290
195 195 200 200 199 202 212 215 213 220 218 210 213 201 199 218 196 139 138 189 211 168 131 82 116 103 77 127 141 169 145 144 162 144 132 138 137 128 128 132 131 126 118 123 133 147 155 148 136 130 129 131 125 125 132 134 149 168 178 188 195 204 209 217 225 230 236 237 235 240 246 252 259 264 271 280 284 287 289 292 295 298 300 300 298
196 196 199 204 204 203 211 212 210 220 221 209 203 214 211 208 218 149 150 196 203 152 140 126 156 149 136 140 151 181 156 176 185 147 138 143 137 136 139 143 143 142 136 130 135 139 137 134 135 136 138 134 130 133 134 130 139 181 189 189 193 200 208 214 219 225 227 224 228 241 251 262 271 274 278 285 289 297 304 307 313 320 324 323 325
198 199 199 205 207 205 213 213 210 216 220 217 205 209 213 200 211 169 155 197 184 153 163 199 189 133 133 154 158 145 116 237 227 145 132 141 136 130 120 118 128 135 147 141 132 125 123 118 122 140 145 140 142 143 138 138 138 170 193 195 193 199 206 212 214 214 214 212 219 235 246 257 271 280 288 298 310 324 324 325 337 344 349 353 357
199 201 200 204 206 208 214 211 209 213 216 224 213 206 212 205 204 175 172 214 192 168 177 184 123 112 122 261 179 143 109 243 223 140 140 154 139 123 104 103 110 99 114 131 124 115 127 125 112 132 145 153 163 155 144 149 146 148 168 177 180 180 172 177 189 182 181 182 191 208 211 219 239 284 317 333 338 343 339 350 8 9 16 19 9
202 202 202 204 207 211 211 205 211 213 210 219 212 206 215 208 201 179 191 237 195 150 149 161 188 160 44 333 176 132 144 207 186 132 150 149 131 120 113 125 138 108 121 141 145 133 135 135 126 132 140 154 162 160 159 161 157 153 157 163 166 162 153 149 149 146 145 143 143 141 133 128 108 85 67 58 43 34 31 32 36 32 33 34 22
204 205 204 205 209 212 207 205 216 215 206 210 207 206 215 207 192 182 202 244 224 151 152 159 200 225 253 294 241 152 39 197 169 74 110 119 121 127 128 143 164 171 158 158 155 147 144 140 139 144 142 143 145 146 155 162 170 170 160 161 165 166 161 149 142 138 134 132 130 126 117 105 98 89 77 70 54 40 34 28 26 25 24 23 19
205 206 206 207 210 211 206 207 217 216 204 203 209 207 208 206 186 180 200 228 225 160 153 157 178 223 234 259 266 251 22 59 121 119 90 97 139 156 162 176 179 189 191 183 169 154 142 138 139 144 145 145 144 140 147 163 182 194 173 168 169 168 165 155 150 146 141 138 132 127 119 108 102 93 87 80 68 53 36 21 15 12 6 3 0
205 207 208 207 210 212 209 208 213 214 203 197 207 209 202 199 185 183 197 209 209 176 158 161 175 202 213 239 257 117 50 77 108 128 117 113 207 177 179 190 191 197 195 193 173 148 137 148 146 140 142 148 156 157 167 184 196 208 191 178 174 170 168 160 159 154 148 147 140 133 125 113 107 97 93 86 75 70 46 27 8 354 346 343 342
205 207 209 208 208 212 212 209 208 209 207 199 203 210 204 190 184 186 189 194 199 192 177 167 181 196 196 223 238 163 179 163 120 147 173 168 207 192 190 196 199 195 182 174 160 138 135 152 146 138 142 148 166 177 194 199 201 205 188 178 173 170 169 165 165 164 159 158 153 148 143 135 131 121 112 103 87 72 27 353 328 322 319 319 322
204 206 209 209 208 210 210 209 207 204 205 203 202 208 201 185 185 188 185 186 189 192 186 175 200 211 185 202 233 196 193 186 156 187 219 230 239 210 194 200 197 176 175 184 172 156 153 158 161 170 162 152 168 188 193 191 205 209 191 185 184 180 178 178 177 176 177 177 178 176 178 187 193 206 244 285 302 311 311 310 310 305 305 306 307
201 205 208 208 208 209 209 208 207 205 204 204 205 208 201 190 190 189 186 188 187 189 190 183 205 222 184 190 213 216 216 210 191 198 204 194 223 228 193 199 193 158 153 161 158 157 161 172 206 193 174 162 170 182 184 196 221 225 213 205 201 200 197 197 197 198 201 200 206 216 224 235 245 252 262 275 283 290 295 297 300 300 299 299 298
198 203 206 206 207 208 208 207 207 207 207 206 205 206 203 195 194 191 188 190 188 187 189 189 200 206 194 195 204 216 220 217 218 215 205 200 224 256 195 190 177 140 128 141 152 159 161 174 215 193 181 166 173 187 190 200 217 222 231 237 224 218 216 215 215 215 219 220 225 232 238 244 251 258 264 272 279 284 289 291 293 294 295 296 297
198 202 204 204 205 206 206 207 208 209 208 208 205 204 203 198 196 195 193 193 191 191 190 190 197 199 205 206 202 217 220 215 228 227 207 207 243 277 251 200 147 133 139 157 166 185 193 208 222 213 205 176 174 192 192 201 222 229 238 242 236 233 231 231 231 231 232 233 238 240 244 252 256 263 268 272 278 281 285 288 289 289 289 290 291
201 203 203 202 205 207 207 206 209 210 208 209 208 205 203 199 198 198 197 195 193 196 195 191 195 200 209 213 209 221 224 216 231 237 211 192 201 240 267 321 107 139 151 167 176 195 214 220 224 223 212 189 185 199 197 208 229 240 244 241 240 240 240 245 246 247 247 246 250 251 253 259 263 270 274 277 281 284 287 290 290 289 287 287 288
205 204 203 203 204 207 208 207 207 209 208 208 208 207 204 199 200 200 200 199 195 197 198 193 197 202 207 215 220 228 229 218 221 236 233 204 194 213 222 251 2 138 149 171 189 207 222 216 212 216 210 195 194 207 215 224 233 245 246 237 242 247 247 257 258 257 258 256 258 260 261 266 270 275 279 282 285 288 291 293 293 292 290 289 289
206 206 204 204 205 205 207 207 207 207 208 207 206 206 205 201 200 200 200 201 199 199 200 196 198 204 207 212 221 229 233 230 223 225 240 238 204 201 205 199 199 160 158 180 194 211 225 221 209 210 213 207 204 211 218 225 230 241 243 237 243 251 253 262 266 263 262 260 262 264 266 270 273 277 280 283 287 291 294 295 295 294 293 293 292
205 206 205 206 206 205 205 206 206 206 207 208 206 204 205 203 201 202 201 202 202 201 202 201 199 203 210 212 219 227 229 236 235 221 229 242 221 194 198 202 205 208 186 193 206 211 218 221 213 207 211 214 213 215 217 220 225 233 242 245 246 251 256 260 261 261 261 263 264 265 267 270 273 276 279 283 287 291 292 292 293 294 294 295 294
206 206 206 206 207 206 205 204 204 205 205 206 206 204 205 204 203 204 203 203 205 204 203 205 202 202 209 213 217 224 227 230 234 226 223 228 222 206 196 200 209 221 225 205 225 231 223 220 215 204 203 209 212 216 217 220 226 230 239 247 247 250 256 255 253 256 261 265 265 264 265 267 271 274 278 282 285 287 289 291 293 296 298 297 297
208 207 205 205 206 207 206 204 203 204 204 205 206 204 204 204 205 206 205 204 205 206 205 206 206 204 206 213 217 222 224 223 219 223 228 224 218 214 208 206 210 219 230 230 226 238 228 223 222 201 196 201 206 214 219 219 225 231 235 240 240 243 249 250 251 255 259 263 264 262 261 262 268 272 275 279 283 288 292 296 298 299 300 300 300
208 208 206 204 205 206 206 205 204 204 204 204 205 204 203 205 206 206 206 205 205 206 207 207 208 208 207 211 216 219 221 221 218 217 222 224 217 212 210 214 215 215 223 226 226 239 229 228 237 199 191 201 204 208 216 216 220 230 235 238 237 237 244 249 252 255 258 261 262 260 260 262 266 268 272 277 283 289 293 295 298 299 300 301 300
208 208 208 207 205 205 205 205 205 204 204 203 204 204 204 205 207 208 208 207 207 207 207 207 208 210 210 211 214 218 217 218 219 218 218 220 215 210 210 215 217 216 217 219 222 236 234 231 234 206 196 207 208 205 211 215 221 228 230 235 238 237 241 247 251 255 256 257 257 255 255 259 263 265 269 276 281 287 290 291 293 296 299 300 299
209 209 209 209 207 206 205 206 206 205 205 204 203 204 205 206 206 208 208 208 209 208 208 209 209 209 211 212 213 216 216 215 218 218 218 219 214 210 212 214 217 216 216 217 217 226 234 233 234 225 213 211 206 204 209 212 220 228 227 230 236 237 239 243 248 252 255 253 249 249 251 255 259 262 267 276 282 284 285 284 285 293 298 299 298
211 210 210 209 208 208 207 207 206 206 206 206 205 204 206 207 207 208 209 209 209 209 209 210 210 210 210 212 213 213 214 214 216 216 215 218 216 212 211 214 216 217 217 218 216 219 228 231 232 230 228 225 217 211 213 215 220 229 231 231 233 234 235 237 240 246 253 253 244 244 250 253 256 261 268 276 282 284 281 277 281 293 300 301 300
211 211 211 209 209 209 208 208 208 207 207 206 206 206 207 208 210 210 209 209 209 210 212 212 212 211 210 211 212 212 212 213 214 215 214 216 217 214 212 212 215 217 217 218 217 218 223 228 230 229 230 233 231 223 220 220 220 224 231 233 232 231 232 235 237 241 249 253 249 247 250 253 256 262 268 275 282 284 279 274 281 295 301 301 299
211 211 210 209 209 209 209 209 209 208 208 208 207 208 209 210 212 213 212 212 211 211 213 214 214 214 213 213 212 211 211 211 212 213 213 214 216 216 213 212 213 215 216 217 217 218 220 224 228 229 230 232 229 224 223 221 219 221 227 232 233 232 231 233 236 240 245 249 250 249 248 250 255 260 266 274 280 282 278 276 285 296 300 297 293
210 210 209 209 209 210 210 210 210 210 209 209 209 209 210 211 212 214 215 215 215 214 214 215 216 216 216 216 215 212 210 211 212 212 213 214 214 215 214 213 213 214 215 217 216 215 217 222 227 228 229 229 224 221 222 222 221 222 223 228 234 236 234 231 232 238 245 247 246 246 247 250 256 262 266 272 278 281 282 285 291 296 297 293 287
209 210 209 209 209 210 211 211 212 212 210 210 211 211 211 212 212 213 215 216 217 217 217 216 216 217 218 218 217 215 213 213 213 213 213 213 214 215 215 213 212 212 214 216 216 213 213 217 223 226 229 230 226 223 222 221 222 225 225 223 227 232 234 235 233 235 241 246 245 246 251 255 259 261 262 266 273 278 282 288 291 292 293 290 286
209 211 211 210 209 210 211 212 212 213 213 212 212 212 211 211 212 213 214 215 216 217 218 218 217 217 218 219 219 219 217 216 215 214 213 213 212 213 214 213 212 211 212 213 214 214 212 212 217 222 226 229 227 224 221 217 218 224 226 223 223 228 231 234 236 234 234 240 244 246 250 253 253 256 262 266 269 274 281 285 285 287 289 286 280
209 211 213 212 210 209 210 212 212 212 214 213 212 212 210 210 212 214 214 215 216 217 217 217 217 217 218 219 219 220 220 220 219 217 216 214 213 212 212 211 211 210 211 211 212 213 213 213 214 216 219 223 223 219 216 214 215 220 224 226 229 231 232 234 236 235 232 233 238 241 244 246 245 249 258 262 266 273 279 280 282 285 285 278 271
210 210 212 214 214 211 209 210 211 212 214 215 214 213 211 210 211 213 214 215 216 217 217 217 217 218 219 220 221 221 222 222 222 220 219 218 217 215 213 211 210 210 209 209 210 211 211 212 214 213 214 218 219 218 216 217 218 219 221 223 228 232 234 234 236 236 233 232 234 237 238 238 238 241 249 257 265 270 273 275 280 282 277 267 259
211 210 210 212 214 214 210 209 211 213 215 217 216 215 214 213 212 212 213 214 215 217 218 218 218 219 220 222 223 223 223 223 223 222 220 220 220 218 217 215 214 212 210 209 210 210 210 212 213 213 215 218 219 219 220 220 219 219 219 220 222 226 229 229 231 233 230 228 229 233 236 237 238 240 246 254 260 260 259 264 272 272 263 245 242
211 211 210 211 213 215 213 210 211 214 217 219 218 217 216 215 214 212 213 214 215 217 219 219 220 220 221 222 223 224 225 224 224 223 221 221 221 220 218 218 218 218 215 213 212 211 210 212 213 213 216 218 218 218 219 219 218 217 215 215 219 220 222 225 228 230 230 227 226 230 236 240 243 245 248 253 259 257 254 258 265 263 252 241 252
211 211 212 211 213 215 216 214 213 215 219 220 219 218 218 217 216 214 213 214 216 218 219 220 221 222 223 223 223 224 226 226 225 223 221 220 220 220 220 219 220 221 220 219 218 216 214 213 214 215 215 216 216 217 217 218 219 215 209 210 215 218 219 224 228 231 234 229 220 221 230 237 239 243 249 255 262 258 253 254 257 253 253 265 281
211 212 213 213 213 214 216 217 217 217 219 220 220 220 219 219 218 217 216 217 218 220 221 221 222 223 224 224 225 225 225 226 226 223 221 220 219 219 218 218 219 221 221 221 221 220 218 217 218 219 218 216 217 219 218 219 221 218 208 206 210 213 217 225 230 233 235 227 215 213 224 233 231 237 247 252 255 252 249 251 253 258 270 278 283
212 213 214 214 215 216 217 220 222 223 223 222 223 222 221 220 220 219 219 220 221 222 223 223 223 224 225 226 226 227 226 226 227 224 221 219 218 217 216 217 220 221 221 221 220 219 219 219 221 221 221 219 219 220 220 219 223 224 217 213 213 213 216 222 228 230 228 222 215 211 218 228 229 235 245 245 240 238 248 258 262 266 274 279 285
214 215 216 217 218 218 219 220 224 227 228 226 225 225 223 221 220 220 220 221 224 226 226 226 225 226 227 227 227 228 227 227 228 227 224 219 216 216 216 217 220 222 223 225 223 221 220 221 222 222 222 222 221 222 222 222 223 223 218 212 209 207 206 209 217 223 222 220 218 215 217 226 228 233 241 240 231 231 245 260 268 274 279 284 285
215 216 217 219 221 221 222 222 224 228 230 230 230 230 227 222 220 219 220 221 224 228 230 229 229 229 229 228 227 227 228 227 227 228 226 220 216 216 217 218 220 223 226 228 227 225 224 225 225 224 224 223 222 222 223 223 223 218 208 198 195 195 196 199 208 218 221 221 219 215 216 223 225 229 236 232 221 224 235 249 265 273 276 275 271
214 216 217 220 221 222 223 224 225 229 231 232 233 235 233 226 221 219 220 221 223 229 232 232 233 234 233 231 229 228 227 227 226 227 227 220 215 216 218 218 220 223 225 227 227 226 226 227 227 226 226 226 224 223 222 222 223 219 210 203 198 196 198 202 207 218 227 229 223 214 212 218 223 224 223 217 216 230 241 253 262 263 266 271 275
214 216 216 218 220 222 224 226 228 230 231 232 234 236 237 233 225 221 219 220 223 228 232 234 236 237 237 236 234 231 229 227 226 226 226 220 216 216 217 217 219 223 224 223 223 223 223 223 224 224 225 226 228 228 227 225 225 221 215 210 203 201 206 208 206 209 225 236 230 219 211 212 215 213 207 201 211 231 234 236 245 256 271 282 282